Location: Drainage Ditch Number 11
(43.3533°N, 93.6647°W)
Time: 20:09:32
(UTC+00:00)

Daily predictions for brighter satellites

Satellite Brightness Start Highest point End
(mag) Time Altitude Azimuth Time Altitude Azimuth Time Altitude Azimuth
Sich 1 Rocket 3.6 12:02:45 10° NNW 12:07:12 60° W 12:11:35 10° S
Cosmos 968 Rocket 4.1 12:02:43 11° NW 12:07:16 35° WSW 12:11:58 10° SSW
CENTAUR R/B 3.6 12:00:22 10° NW 12:08:41 54° WSW 12:17:48 10° S
Meteor 2-17 Rocket 4.5 12:04:08 10° SSW 12:10:06 58° WNW 12:16:08 10° N
ATLAS 3B R/B 3.5 12:03:25 10° WSW 12:10:27 39° NW 12:17:48 10° NNE
Helios 1A Rocket 3.2 12:08:49 10° SSW 12:11:48 30° W 12:14:49 10° NW
Cosmos 1484 Rocket 2.4 12:09:25 10° N 12:12:56 70° WNW 12:16:24 10° SSW
NOSS 2-2 (C) 4.0 12:10:47 13° NW 12:14:27 57° WSW 12:20:11 10° SSE
COSMO-SKYMED 1 2.9 12:11:08 10° S 12:15:00 40° W 12:18:54 10° NNW
IRS-1D 4.2 12:12:39 10° N 12:16:54 30° WNW 12:21:09 10° SW
Cosmos 2228 4.4 12:14:30 10° N 12:18:32 40° ENE 12:22:31 10° SSE
Cosmos 292 Rocket 3.7 12:14:29 10° NNW 12:19:17 77° WSW 12:24:01 10° SSE
CZ-3 R/B 3.5 12:11:58 10° WSW 12:21:46 26° SSW 12:26:25 10° SE
SL-8 R/B 4.4 12:17:45 10° SW 12:22:24 57° SSE 12:27:04 10° ENE
Gbstr 26 Del rocket 4.0 12:17:52 11° NW 12:22:55 68° NNE 12:29:28 10° ESE
IGS 5A 3.3 12:20:51 10° N 12:24:50 79° WNW 12:28:47 10° SSW
SL-16 R/B 3.6 12:24:27 10° W 12:28:06 17° NW 12:31:45 10° N
USA 234 3.4 12:26:13 10° SE 12:32:43 65° SW 12:39:14 10° NW
Cosmos 1302 Rocket 4.2 12:27:49 10° SW 12:32:48 48° WNW 12:37:50 10° N
Cosmos 1975 Rocket 3.1 12:28:57 10° S 12:33:13 82° E 12:37:31 10° N
Cosmos 1315 Rocket 3.0 12:32:53 10° N 12:36:44 72° ENE 12:40:33 10° SSE
Cosmos 1992 Rocket 4.0 12:32:11 10° SSW 12:37:23 80° WNW 12:42:38 10° NNE
Cosmos 1441 Rocket 3.4 12:35:03 10° SW 12:38:07 35° WNW 12:41:13 10° N
deb Kosmos-1261 4.3 12:38:00 10° SW 12:40:17 56° NW 12:43:55 10° NE
CORIOLIS 4.4 12:35:00 10° NNE 12:40:22 80° ESE 12:45:43 10° S
Tsikada Rocket 4.1 12:34:13 10° SSW 12:40:30 67° W 12:46:54 10° N
NOSS 2-2 (D) 4.0 12:38:14 10° NW 12:42:18 59° WSW 12:47:58 10° SSE
Cosmos 1025 Rocket 4.2 12:39:44 10° WSW 12:43:05 21° WNW 12:46:27 10° NNW
CBERS-1 4.1 23:08:36 10° SSE 23:13:42 89° ENE 23:18:51 10° NNW
SMAP 3.3 23:09:59 10° SE 23:14:25 47° ENE 23:18:54 10° N
YAOGAN 1 4.4 23:14:23 10° ENE 23:15:10 10° ENE 23:15:57 10° NE
Cosmos 44 Rocket 3.6 23:11:34 10° S 23:16:06 47° ESE 23:20:48 10° NE
BREEZE-M DEB (TANK) 2.5 23:15:56 10° SW 23:18:05 57° SE 23:22:29 10° ENE
Cosmos 1833 Rocket 3.1 23:12:36 10° NNW 23:18:15 72° WSW 23:23:50 10° SSE
USA 215 3.4 23:12:15 10° ESE 23:18:37 57° NNE 23:25:00 10° NW
RESURS DK-1 2.7 23:16:58 10° NNW 23:20:45 39° ENE 23:24:31 10° SE
Meteor 1-28 Rocket 3.3 23:18:04 10° N 23:21:25 66° WNW 23:24:45 10° SSW
SL-12 R/B(2) 4.3 23:15:39 10° SSW 23:23:21 73° ESE 23:32:44 10° NE
Cosmos 540 Rocket 3.7 23:19:50 10° N 23:24:46 45° ENE 23:29:38 10° SE
Landsat 7 4.1 23:22:05 10° SE 23:26:30 45° ENE 23:30:56 10° N
Cosmos 1400 Rocket 4.3 23:24:35 10° SE 23:26:53 16° E 23:29:11 10° NE
SJ-12 4.1 23:26:22 10° SE 23:29:57 42° ENE 23:33:33 10° N
Helios 1A Rocket 4.4 23:31:25 11° E 23:32:03 11° E 23:33:07 10° ESE
Cosmos 1763 Rocket 3.4 23:28:55 10° NNW 23:34:07 65° ENE 23:39:11 10° SSE
Tsikada Rocket 4.3 23:30:00 10° N 23:36:24 76° W 23:42:42 10° S
Cosmos 1140 Rocket 4.4 23:32:38 10° SW 23:37:38 50° WNW 23:42:39 10° N
UNK 3.8 23:35:05 10° NNE 23:39:43 82° WNW 23:44:19 10° SSW
Cosmos 1536 Rocket 4.5 23:37:41 10° NNE 23:41:25 26° ENE 23:45:06 10° SE
Cosmos 371 Rocket 4.3 23:38:34 10° SSE 23:42:29 25° E 23:46:07 11° NE
Okean 2 Rocket 4.1 23:41:10 10° SE 23:44:45 25° E 23:48:20 10° NNE
Timation 1 Rocket 4.3 23:46:46 10° NNW 23:52:46 80° ENE 23:58:43 10° SSE
COSMO-SKYMED 1 3.5 23:52:15 14° NE 23:54:50 25° E 23:58:14 10° SSE
Cosmos 1602 3.3 23:52:23 10° N 23:55:20 44° E 23:58:16 10° SSE
